Regional Weather Roundup
Issued by NWS Boston, MA

Home | Current Version | Previous Version | Text Only | Print | Product List | Glossary On
Versions: 1 2 3 4 5 6 7 8 9 10 11 12 13 14 15 16 17 18 19 20 21 22 23 24 25 26 27 28 29 30 31 32 33 34 35 36 37 38 39 40 41 42 43 44 45 46 47 48 49 50
000
ASUS41 KBOX 292210
RWRBOX

REGIONAL WEATHER ROUNDUP
NATIONAL WEATHER SERVICE TAUNTON MA
600 PM EDT SAT AUG 29 2015

NOTE:  "FAIR" INDICATES FEW OR NO CLOUDS BELOW 12,000 FEET WITH NO
SIGNIFICANT WEATHER AND/OR OBSTRUCTIONS TO VISIBILITY.  THE FOLLOWING
OBSERVATION LOCATIONS DO NOT REPORT PRESENT WEATHER...PROVINCETOWN...
SMITHFIELD...BLOCK ISLAND...KEENE...AND OXFORD.

MAZALL-292300-
EASTERN MASSACHUSETTS

CITY           SKY/WX    TMP DP  RH WIND       PRES   REMARKS
BOSTON         PTSUNNY   79  54  41 W8        30.08S
BEVERLY        MOSUNNY   77  58  51 S6        30.07S
LAWRENCE       MOSUNNY   78  55  44 W9        30.09S
BEDFORD        MOSUNNY   77  53  43 SW6       30.08R
BLUE HILL        N/A     77  54  44 W10       30.09F
NORWOOD        MOSUNNY   79  56  45 W8        30.08S
MARSHFIELD     MOSUNNY   79  61  53 SW9       30.09F
PLYMOUTH       MOSUNNY   75  61  61 S8        30.10S
TAUNTON        MOSUNNY   78  59  51 S6        30.08F
NEW BEDFORD    MOSUNNY   75  61  61 S10       30.10S
$$

MAZALL-292300-
CAPE COD AND THE ISLANDS

CITY           SKY/WX    TMP DP  RH WIND       PRES   REMARKS
FALMOUTH       PTSUNNY   73  61  64 SW12G17   30.11F
HYANNIS        PTSUNNY   75  58  55 SW14      30.10F
CHATHAM        PTSUNNY   72  63  73 SW10G18   30.12F
PROVINCETOWN   MOSUNNY   73  57  56 SW15      30.10S
NANTUCKET      PTSUNNY   73  66  78 S8        30.13F
MARTHAS VNYRD  PTSUNNY   73  64  73 SW7       30.12F
$$

MAZALL-292300-
CENTRAL AND WESTERN MASSACHUSETTS

CITY           SKY/WX    TMP DP  RH WIND       PRES   REMARKS
WORCESTER      MOSUNNY   74  55  51 W7        30.13S
FITCHBURG      MOSUNNY   78  55  44 W9        30.10F
ORANGE         MOSUNNY   76  57  51 SW5       30.10F
SPRINGFIELD    MOSUNNY   79  57  45 W6        30.08F
WESTFIELD      MOSUNNY   79  56  45 W7        30.10S
NORTH ADAMS    PTSUNNY   75  60  59 SW3       30.10F
PITTSFIELD     MOSUNNY   74  58  57 SW7       30.12S
$$

RIZALL-292300-
RHODE ISLAND

CITY           SKY/WX    TMP DP  RH WIND       PRES   REMARKS
PROVIDENCE     PTSUNNY   81  54  39 SW7       30.10S
NEWPORT        MOSUNNY   75  59  57 SW7G20    30.11F
BLOCK ISLAND   MOSUNNY   75  64  69 SW12      30.13F
SMITHFIELD     MOSUNNY   75  57  53 SW5       30.11S
WESTERLY       MOSUNNY   76  62  62 S10       30.12S
$$

CTZALL-292300-
CONNECTICUT

CITY           SKY/WX    TMP DP  RH WIND       PRES   REMARKS
BRADLEY INTL   PTSUNNY   80  56  43 NW6       30.09F
HARTFORD       MOSUNNY   82  55  39 W9        30.09S
BRIDGEPORT     SUNNY     82  56  40 S8        30.10F
DANBURY        SUNNY     80  56  43 W3        30.12F
GROTON         MOSUNNY   76  64  66 SW9       30.10F
NEW HAVEN      MOSUNNY   79  56  45 S6        30.11F
CHESTER        NOT AVBL
MERIDEN        MOSUNNY   82  54  37 SW6       30.10F
WILLIMANTIC    MOSUNNY   81  56  42 NW6       30.10S
OXFORD         MOSUNNY   79  55  44 NW6       30.15S
$$

MEZ002-015-021-024-NHZ003-005-008-011-012-014-VTZ005-008-292300-
NORTHERN NEW ENGLAND

CITY           SKY/WX    TMP DP  RH WIND       PRES   REMARKS
PORTLAND ME    PTSUNNY   72  60  66 S7        30.06F
BANGOR ME      CLOUDY    72  60  66 S8        30.05F
CONCORD NH     MOSUNNY   76  56  49 SW8       30.08S
MANCHESTER NH  PTSUNNY   78  53  41 W9        30.07S
NASHUA NH      MOSUNNY   78  56  46 W6        30.09S
PORTSMOUTH NH  PTSUNNY   75  60  60 SE5       30.05S
JAFFREY NH     MOSUNNY   73  57  57 VRB3      30.12F
KEENE NH       PTSUNNY   75  57  53 SW5       30.09F
BURLINGTON VT  PTSUNNY   78  55  44 CALM      30.06F
MT. WASHINGTON FOG       48  48 100 W21         N/A  VSB 1/8
$$

NYZ052-076-292300-
EASTERN NEW YORK

CITY           SKY/WX    TMP DP  RH WIND       PRES   REMARKS
ALBANY         PTSUNNY   79  58  48 SE5       30.08F
NEW YORK CITY  MOSUNNY   81  59  47 S17       30.10S
$$

ANZALL-292300-
MARINE OBSERVATIONS

STATION/POSITION TIME  TEMP    WIND        PRES    VSBY  WAVE
                       AIR SEA DIR/SP/G                  HT/PER
                 (UTC) (F)     (DEG/KT/KT) (MB)    (MI)  (FT/S)
BOSTON BUOY      2150   73 71  150/  6/  8 1018.9F         2/10
BUZZARDS BAY     2100          200/ 14/ 15 1020.6F
NANTUCKET SOUND  2150   73 74  220/ 14/ 16 1019.7F         1/11
MASS BAY-STELLWA 2104   72 70  150/ 10/ 10   N/A    1 7/8  3/11
ISLE OF SHOALS   2200   70     180/ 15/ 16 1017.7F
S OF BLOCK IS    2108      75                N/A           2/11
$$

......................KEY.........................
  SKY/WX - SKY CONDITION/PRESENT WEATHER
  TMP    - TEMPERATURE IN FAHRENHEIT
  DWPT   - DEWPOINT IN FAHRENHEIT
  RH     - RELATIVE HUMIDITY IN PERCENT
  WIND   - DIRECTION AND SPEED IN MPH
  PRES   - MEAN SEA LEVEL PRESSURE IN INCHES OF HG
  WCI    - WIND CHILL INDEX
  VSB    - VISIBILITY IN MILES
  HX     - HEAT INDEX
  TC     - TEMPERATURE IN CELSIUS
  VRB    - VARIABLE WIND DIRECTION
  N/A    - NOT AVAILABLE



USA.gov is the U.S. government's official web portal to all federal, state and local government web resources and services.